Rochester, NY

11:20 PM EST on February 24, 2018 (GMT -0500)
Greater Rochester International

Weather History for KROC - September, 2013

Change the Weather History Date:

Saturday, September 28, 2013

  Actual Average Record
Temperature  
Mean Temperature 59 °F 57 °F  
Max Temperature 74 °F 67 °F 90 °F (1959)
Min Temperature 44 °F 47 °F 28 °F (1947)
Degree Days  
Heating Degree Days 6 9  
Month to date heating degree days 168 130  
Since 1 July heating degree days 186 164  
Cooling Degree Days 0 1  
Month to date cooling degree days 58 50  
Year to date cooling degree days 649 534  
Growing Degree Days 8 (Base 50)    
Moisture  
Dew Point 49 °F    
Average Humidity 75    
Maximum Humidity 100    
Minimum Humidity 49    
Precipitation  
Precipitation 0.00 in 0.11 in 1.95 in (1962)
Month to date precipitation 2.41 3.17  
Year to date precipitation 27.62 25.77  
Snow  
Snow 0.00 in 0.00 in 0.00 in ()
Month to date snowfall 0.0 0.0  
Since 1 July snowfall 0.0 0.0  
Since 1 September snowfall 0.0 0.0  
Snow Depth 0.00 in    
Sea Level Pressure  
Sea Level Pressure 30.27 in    
Wind  
Wind Speed 3 mph (SSE)    
Max Wind Speed 10 mph    
Max Gust Speed 14 mph    
Visibility 7 miles    
Events Fog    
T = Trace of Precipitation, MM = Missing Value Source: NWS Daily Summary

Daily Weather History Graph

Daily Weather History Graph

Search for Another Location

Airport or City:

Trip Planner

Search our weather history database for the weather conditions in past years. The results will help you decide how hot, cold, wet, or windy it might be!

Date:

Astronomy

Sep. 28, 2013 Rise Set
Actual Time 7:04 AM EDT 6:56 PM EDT
Civil Twilight 6:36 AM EDT 7:25 PM EDT
Nautical Twilight 6:03 AM EDT 7:58 PM EDT
Astronomical Twilight 5:29 AM EDT 8:31 PM EDT
Moon 12:42 AM EDT (9/28) 3:21 PM EDT (9/28)
Length of Visible Light 12h 48m
Length of Day
11h 51m
Last Quarter, 36% of the Moon is Illuminated
Sep 28
Last Quarter
Oct 4
New
Oct 11
First Quarter
Oct 18
Full
Oct 26
Last Quarter

Hourly Weather History & Observations

Time (EDT) Temp. Windchill Dew Point Humidity Pressure Visibility Wind Dir Wind Speed Gust Speed Precip Events Conditions
12:54 AM 50.0 °F - 48.0 °F 93% 30.28 in 9.0 mi Calm Calm - N/A   Clear
1:54 AM 48.9 °F - 46.9 °F 93% 30.28 in 10.0 mi Calm Calm - N/A   Clear
2:54 AM 48.0 °F - 46.0 °F 93% 30.29 in 4.0 mi Calm Calm - N/A   Clear
3:54 AM 48.0 °F - 44.1 °F 86% 30.28 in 10.0 mi Calm Calm - N/A   Clear
4:54 AM 46.0 °F - 44.1 °F 93% 30.29 in 8.0 mi Calm Calm - N/A   Partly Cloudy
5:05 AM 46.4 °F - 44.6 °F 93% 30.27 in 2.0 mi Calm Calm - N/A   Mostly Cloudy
5:08 AM 46.4 °F - 44.6 °F 93% 30.27 in 1.0 mi Calm Calm - N/A   Mist
5:15 AM 46.4 °F - 44.6 °F 93% 30.27 in 0.5 mi Calm Calm - N/A Fog Fog
5:37 AM 46.4 °F - 44.6 °F 93% 30.28 in 2.0 mi Calm Calm - N/A   Mostly Cloudy
5:41 AM 46.4 °F - 44.6 °F 93% 30.28 in 1.8 mi Calm Calm - N/A   Mist
5:54 AM 45.0 °F - 44.1 °F 97% 30.29 in 1.5 mi Calm Calm - N/A   Mostly Cloudy
6:06 AM 44.6 °F - 44.6 °F 100% 30.28 in 6.0 mi Calm Calm - N/A   Scattered Clouds
6:17 AM 44.6 °F 43.1 °F 44.6 °F 100% 30.28 in 1.5 mi WSW 3.5 mph - N/A   Scattered Clouds
6:30 AM 44.6 °F - 44.6 °F 100% 30.28 in 1.5 mi Calm Calm - N/A   Mostly Cloudy
6:54 AM 45.0 °F - 44.1 °F 97% 30.31 in 1.0 mi Calm Calm - N/A   Mostly Cloudy
7:26 AM 44.6 °F - 44.6 °F 100% 30.30 in 1.0 mi Calm Calm - N/A   Mostly Cloudy
7:45 AM 46.4 °F - 46.4 °F 100% 30.30 in 1.0 mi Calm Calm - N/A   Mostly Cloudy
7:50 AM 46.4 °F - 44.6 °F 93% 30.30 in 2.5 mi Calm Calm - N/A   Scattered Clouds
7:54 AM 46.9 °F - 46.0 °F 97% 30.32 in 7.0 mi Calm Calm - N/A   Partly Cloudy
8:54 AM 51.1 °F - 50.0 °F 96% 30.33 in 10.0 mi South 3.5 mph - N/A   Clear
9:54 AM 57.0 °F - 53.1 °F 87% 30.32 in 10.0 mi Calm Calm - N/A   Clear
10:54 AM 62.1 °F - 54.0 °F 75% 30.32 in 10.0 mi Calm Calm - N/A   Partly Cloudy
11:54 AM 66.9 °F - 55.0 °F 66% 30.30 in 10.0 mi Variable 3.5 mph - N/A   Partly Cloudy
12:54 PM 70.0 °F - 55.0 °F 59% 30.29 in 10.0 mi Calm Calm - N/A   Partly Cloudy
1:54 PM 70.0 °F - 55.0 °F 59% 30.26 in 10.0 mi Calm Calm - N/A   Partly Cloudy
2:54 PM 73.0 °F - 54.0 °F 51% 30.24 in 10.0 mi Variable 4.6 mph - N/A   Scattered Clouds
3:54 PM 72.0 °F - 55.0 °F 55% 30.22 in 10.0 mi East 4.6 mph - N/A   Scattered Clouds
4:54 PM 73.0 °F - 55.0 °F 53% 30.20 in 10.0 mi ESE 5.8 mph - N/A   Partly Cloudy
5:54 PM 71.1 °F - 54.0 °F 55% 30.20 in 10.0 mi ESE 8.1 mph - N/A   Scattered Clouds
6:54 PM 68.0 °F - 53.1 °F 59% 30.20 in 10.0 mi SE 9.2 mph - N/A   Scattered Clouds
7:54 PM 64.9 °F - 52.0 °F 63% 30.21 in 10.0 mi SSE 6.9 mph - N/A   Partly Cloudy
8:54 PM 63.0 °F - 52.0 °F 67% 30.21 in 10.0 mi SSE 6.9 mph - N/A   Partly Cloudy
9:54 PM 61.0 °F - 51.1 °F 70% 30.21 in 10.0 mi South 4.6 mph - N/A   Partly Cloudy
10:54 PM 59.0 °F - 50.0 °F 72% 30.20 in 10.0 mi South 3.5 mph - N/A   Clear
11:54 PM 54.0 °F - 48.9 °F 83% 30.20 in 10.0 mi Calm Calm - N/A   Clear